313  
ASUS43 KMPX 270210  
RWRMN  
WEATHER ROUNDUP FOR MINNESOTA  
NATIONAL WEATHER SERVICE TWIN CITIES/CHANHASSEN MN  
900 PM CDT SUN MAR 26 2017  
 
NOTE: "FAIR" INDICATES FEW OR NO CLOUDS BELOW 12,000 FEET WITH NO  
SIGNIFICANT WEATHER AND/OR S TO VISIBILITY
. N/A MEANS  
CURRENT SKY AND/OR WEATHER CONDITIONS ARE NOT AVAILABLE.  
 
MNZ060>063-068>070-270300-  
TWIN CITIES METRO  
 
CITY SKY/WX TMP DP RH WIND PRES REMARKS
 
TWIN CITIES DRIZZLE 40 36 86 N7 29.93S  
ST PAUL CLOUDY 40 38 93 N12 29.94S  
CRYSTAL CLOUDY 39 35 86 N6 29.92F  
BLAINE CLOUDY 39 39 100 N7 29.93S  
LAKEVILLE CLOUDY 39 39 100 N7 29.92S  
EDEN PRAIRIE CLOUDY 40 37 89 N6 29.92S FOG  
SOUTH ST PAUL CLOUDY 40 38 92 N6 29.93S  
LAKE ELMO CLOUDY 39 37 93 N5 29.94R FOG  

 
MNZ001>005-007-008-013>017-022>024-027-028-270300-  
NORTHWEST MINNESOTA  
 
CITY SKY/WX TMP DP RH WIND PRES REMARKS
 
BEMIDJI CLOUDY 40 32 74 CALM 29.93S  
HALLOCK CLEAR 36 36 100 CALM 29.95F FOG  
ROSEAU CLEAR 37 34 87 CALM 29.94F  
WARROAD CLEAR 34 30 86 SW3 29.95S  
THIEF RVR FALL PTCLDY N/A N/A N/A CALM 29.96R  
CROOKSTON CLOUDY 39 39 100 CALM 29.96S FOG  
FOSSTON CLOUDY 37 36 93 W5 29.95S  
DETROIT LAKES PTCLDY 41 36 81 NW3 29.95S  
MOORHEAD CLOUDY 41 37 87 CALM 29.96S  
PARK RAPIDS CLOUDY 43 31 62 CALM 29.92S  
MAHNOMEN MOCLDY 38 36 92 W6 29.94S  

 
MNZ006-009>011-018-025>026-270300-  
NORTH CENTRAL MINNESOTA  
 
CITY SKY/WX TMP DP RH WIND PRES REMARKS
 
BAUDETTE CLEAR 34 31 88 MISG 29.94R  
FLAG ISLAND CLEAR 34 30 86 S3 29.93S  
INTL FALLS CLOUDY 36 29 75 CALM 29.93S  
WASKISH CLOUDY 36 32 87 CALM 29.94S  
BIG FORK PTCLDY 39 30 70 CALM 29.92S  
LONGVILLE CLOUDY 36 30 80 CALM 29.93S  
GRAND RAPIDS PTCLDY 35 31 85 CALM 29.94S  
CRANE LAKE PTCLDY 30 27 86 CALM 29.95S  
ORR CLOUDY 37 28 70 CALM 29.90S  
COOK CLOUDY 37 28 70 CALM 29.92S  
WALKER CLOUDY 40 32 72 CALM 29.92F  

 
MNZ012-019>021-037-270300-  
NORTHEAST MINNESOTA  
 
CITY SKY/WX TMP DP RH WIND PRES REMARKS
 
DULUTH CLOUDY 33 33 100 CALM 29.93S FOG  
ELY PTCLDY 30 28 93 CALM 29.92R  
HIBBING PTCLDY 31 30 96 CALM 29.92S  
EVELETH PTCLDY 32 30 92 CALM 29.93S  
DULUTH HARBOR CLOUDY 36 34 93 CALM 29.97S  
TWO HARBORS CLOUDY 36 30 80 CALM 29.93R  
SILVER BAY CLOUDY 34 34 100 CALM 29.93R  
GRAND MARAIS N/A 35 33 92 E5 29.96S WCI 31  
G MARAIS ARPRT CLOUDY 30 28 93 CALM 29.92R FOG  

 
MNZ029>031-032-039>041-046>048-054>057-064-270300-  
WEST CENTRAL MINNESOTA  
 
CITY SKY/WX TMP DP RH WIND PRES REMARKS
 
FERGUS FALLS CLOUDY 39 36 87 NW6 29.98S  
WHEATON CLOUDY 43 36 75 CALM 29.97S  
MORRIS CLOUDY 41 37 87 N3 29.93F  
ALEXANDRIA MOCLDY 43 35 73 N3 29.94R  
ELBOW LAKE CLOUDY 40 37 87 NW5 29.95S  
WADENA CLOUDY 39 32 75 CALM 29.93S  
GLENWOOD CLOUDY 43 36 75 CALM 29.94S  
APPLETON CLOUDY 41 36 81 CALM 29.94S  
BENSON CLOUDY 45 36 70 N6 29.95F  
ORTONVILLE CLOUDY 39 36 87 N5 29.94S  
MADISON CLOUDY 43 41 93 N3 29.94S  
WILLMAR CLOUDY 43 37 81 CALM 29.95S  

 
MNZ033>034-036-042>043-049>051-058-059-270300-  
CENTRAL MINNESOTA  
 
CITY SKY/WX TMP DP RH WIND PRES REMARKS
 
ST CLOUD CLOUDY 37 37 100 CALM 29.94S  
SAUK CENTRE CLOUDY 40 35 83 CALM 29.94S  
PAYNESVILLE N/A 41 36 84 CALM 29.94S  
AITKIN PTCLDY 34 28 80 CALM 29.92S  
PINE RIVER CLOUDY 39 34 81 CALM 29.97S  
BRAINERD CLOUDY 39 32 76 NW3 29.93S  
STAPLES MOCLDY 39 32 75 CALM 29.94R  
LONG PRAIRIE CLOUDY 37 34 87 CALM 29.94R  
LITTLE FALLS MOCLDY 36 32 87 CALM 29.94S  
LITCHFIELD CLOUDY 39 37 93 CALM 29.94S  
BUFFALO CLOUDY 38 36 92 N3 29.95S  
MAPLE LAKE CLOUDY 38 37 98 N3 29.95S  
HUTCHINSON CLOUDY 40 38 92 N5 29.94F  

 
MNZ037-044-045-052-053-270300-  
EAST CENTRAL MINNESOTA  
 
CITY SKY/WX TMP DP RH WIND PRES REMARKS
 
PRINCETON CLOUDY 37 37 100 CALM 29.95S  
MORA CLOUDY 36 34 93 CALM 29.96S  
CAMBRIDGE CLOUDY 39 36 87 N3 29.93S  
RUSH CITY CLOUDY 35 34 94 N5 29.95S WCI 31  
MOOSE LAKE CLOUDY 34 32 93 CALM 29.93S FOG  
CLOQUET FOG 34 32 93 CALM 29.94S VSB 1/4  
MCGREGOR CLOUDY 34 32 93 CALM 29.94R  

 
MNZ071>073-080-081-089-090-097-098-270300-  
SOUTHWEST MINNESOTA  
 
CITY SKY/WX TMP DP RH WIND PRES REMARKS
 
MONTEVIDEO CLOUDY 43 37 81 N5 29.96R  
GRANITE FALLS CLOUDY 44 39 83 NW3 29.95S  
CANBY CLOUDY 41 38 89 CALM 29.95S  
REDWOOD FALLS CLOUDY 43 37 79 CALM 29.93S  
OLIVIA CLOUDY 41 36 81 CALM 29.93S  
PIPESTONE CLOUDY 41 36 81 CALM 29.94R  
WINDOM MOCLDY 41 39 93 N3 29.94R  
WORTHINGTON CLOUDY 40 37 89 N8 29.94R  
JACKSON CLOUDY 39 37 93 CALM 29.95R  
TRACY CLOUDY 42 39 90 CALM 29.94S  
SLAYTON CLOUDY 39 37 93 NW6 29.95R  

 
MNZ065>067-074>077-082>085-091>093-270300-  
SOUTH CENTRAL MINNESOTA  
 
CITY SKY/WX TMP DP RH WIND PRES REMARKS
 
MANKATO CLOUDY 39 38 96 N8 29.94R  
NEW ULM CLOUDY 39 37 93 CALM 29.94R  
ST JAMES CLOUDY 39 37 93 CALM 29.95R  
FAIRMONT CLOUDY 40 38 93 N5 29.94R  
GLENCOE CLOUDY 39 39 100 N3 29.92F  
FARIBAULT CLOUDY 39 39 100 NW5 29.92S  
OWATONNA CLOUDY 39 37 93 CALM 29.92R FOG  
WASECA CLOUDY 39 36 87 N6 29.93S  
ALBERT LEA CLOUDY 39 39 100 N5 29.92R FOG  

 
MNZ078>079-086>088-094>096-270300-  
SOUTHEAST MINNESOTA  
 
CITY SKY/WX TMP DP RH WIND PRES REMARKS
 
ROCHESTER CLOUDY 39 39 100 NW6 29.90S  
RED WING CLOUDY 43 39 87 NW3 29.92S FOG  
STANTON CLOUDY 41 39 93 NE3 29.90F  
DODGE CENTER CLOUDY 39 37 93 N5 29.91S FOG  
WINONA CLOUDY 41 37 87 NW5 29.93R  
AUSTIN CLOUDY 39 37 93 N5 29.91R  
PRESTON CLOUDY 38 37 94 N3 29.89F FOG  

 
ABBREVIATIONS USED IN REMARKS  
TC - TEMPERATURES IN CELSIUS  
WCI - WIND CHILL INDEX  
HX - HEAT INDEX  
VSB - VISIBILITY  

 
 
 
CLICK HERE TO GO TO PREVIOUS BULLETINS.

The Nexlab MN Page Main Text Page